Lid_Strength_Index
12 13 15 13 12 12 13 13 14 14 15 16 15 15 13 13 15 14 12 13 13 13 12 12 11 11 11 11 12 12 12 12 12 12 12 12 12 12 11 11 11 11 11 11
14 15 12 13 13 14 14 15 15 15 16 16 15 16 14 13 14 13 13 13 13 12 13 13 12 11 12 12 12 12 12 12 11 11 11 11 11 11 11 11 11 11 11 11
15 16 16 15 15 15 15 15 15 15 16 16 17 16 14 14 14 13 13 12 12 12 14 12 12 12 11 12 12 12 12 12 11 11 12 12 12 12 12 12 12 12 11 11
15 16 16 16 16 15 16 14 15 16 16 17 17 19 15 15 15 16 15 13 12 13 12 11 12 12 12 11 11 12 12 12 12 12 12 12 12 12 11 11 11 12 11 11
16 18 17 17 16 15 16 16 15 16 16 18 18 19 16 18 16 15 16 14 13 12 11 11 12 11 11 11 11 11 12 12 12 12 11 11 11 11 11 11 12 11 11 11
18 17 17 16 17 17 16 16 16 17 17 20 17 18 17 15 15 13 13 14 13 12 11 11 11 11 12 11 11 11 12 12 12 12 11 11 11 12 12 12 12 11 11 11
19 18 17 16 17 16 16 17 19 20 20 21 20 20 17 14 14 14 12 12 13 12 11 11 11 12 11 12 12 12 12 12 12 12 12 11 11 11 11 11 11 11 11 11
18 19 18 17 17 17 17 16 17 20 20 18 21 22 17 14 14 14 14 13 12 12 11 11 11 11 11 12 12 12 12 12 12 12 12 11 11 11 10 11 11 11 11 11
18 19 19 19 18 17 17 18 16 18 23 21 18 17 15 14 14 14 14 14 13 13 12 11 11 11 11 12 12 12 12 12 12 12 11 11 11 11 11 11 10 10 10 11
16 18 20 19 18 18 18 17 19 18 21 21 19 19 17 14 13 12 14 14 13 12 12 11 11 11 11 11 11 11 12 12 12 12 11 11 11 11 10 10 11 11 11 11
16 17 21 20 20 19 20 19 19 19 19 20 20 17 12 12 13 13 12 12 12 12 12 11 11 11 11 11 11 12 12 12 12 12 11 11 11 11 11 11 11 11 11 11
15 16 20 20 20 20 20 18 18 18 19 21 21 19 13 13 13 13 13 12 12 12 12 11 11 11 11 11 11 12 12 12 12 11 11 11 11 11 11 11 11 11 11 11
16 17 19 20 21 21 21 19 18 18 19 19 20 18 16 15 13 13 14 12 12 12 12 11 11 12 12 12 12 12 12 11 11 12 12 12 12 12 11 11 11 11 11 11
15 18 19 18 18 19 22 21 19 19 19 19 19 18 14 13 12 11 12 13 12 12 12 12 12 12 12 12 11 11 11 11 12 12 12 12 12 12 11 11 11 12 12 12
16 19 23 21 20 21 20 21 21 21 19 20 17 17 15 13 12 12 12 13 14 13 13 13 12 12 12 12 11 12 12 12 12 12 12 12 12 11 11 12 12 12 12 12
19 18 24 20 21 21 22 21 21 19 19 18 18 18 14 13 13 13 13 13 13 13 13 12 12 12 12 12 12 12 12 12 12 12 12 12 12 12 13 13 13 13 13 13
18 18 20 21 21 21 22 21 20 18 19 18 20 16 14 15 14 13 12 11 13 12 12 12 12 12 13 12 12 12 12 12 13 13 13 13 13 13 13 13 13 14 14 14
19 20 18 20 22 23 16 18 17 17 16 16 16 15 14 14 13 12 11 11 12 12 12 13 13 13 13 13 13 13 13 13 13 14 14 13 14 15 15 15 15 16 16 17
15 17 18 19 20 18 17 15 18 19 17 16 16 16 15 14 15 15 13 12 11 12 12 12 12 14 14 15 15 15 15 15 15 16 16 16 16 17 17 18 19 18 18 19
17 16 17 20 21 22 16 16 16 14 19 13 14 15 15 15 17 14 18 16 16 15 14 15 15 16 16 17 16 17 18 19 19 19 19 18 18 19 20 20 20 20 19 20
21 20 20 19 20 17 14 14 14 18 14 15 15 13 15 16 15 20 20 21 20 19 18 18 18 19 19 18 18 20 21 22 22 21 21 21 21 21 21 21 21 21 21 21
21 21 21 19 19 21 15 16 15 11 13 15 15 15 14 17 20 21 22 22 21 22 21 20 21 22 21 20 21 23 24 23 23 22 22 22 22 22 22 22 22 22 22 22
18 15 18 16 16 11 14 12 12 14 13 14 15 16 16 19 20 21 22 23 23 24 24 23 24 25 24 23 23 25 25 24 24 24 24 24 23 23 22 23 23 22 22 22
17 14 15 16 13 13 13 13 14 14 14 15 15 16 17 19 21 22 24 24 25 25 25 25 26 27 27 26 26 26 25 25 25 26 26 25 25 24 24 23 23 22 22 22
11 15 14 15 12 13 13 14 12 15 15 16 16 17 18 19 21 22 23 24 25 25 25 26 27 27 28 27 27 26 26 25 26 26 26 26 26 25 24 23 23 23 21 21
11 12 14 14 10 11 10 11 13 15 16 17 18 19 18 19 21 22 23 24 25 26 26 27 28 28 28 27 27 26 25 25 26 27 26 26 26 26 26 25 25 22 21 21